G8PZT-1 Weather Reports


Display with metric or nautical units.
time (UTC)temp
F
wind
direction
speed
MPH
gust
MPH
rain 1hr
in
rain 24hr
in
rain mn
in
humidity
%
barometer
mb
20260510152448 54 80 21.0 21.0 0.00 0.00 0.00 82 1014.0
20260510151448 54 80 21.0 21.0 0.00 0.00 0.00 82 1014.0
20260510150448 54 80 21.0 21.0 0.00 0.00 0.00 82 1014.0
20260510145448 54 80 21.0 21.0 0.00 0.00 0.00 82 1014.0
20260510144447 54 80 21.0 21.0 0.00 0.00 0.00 82 1014.0
20260510143447 54 80 21.0 21.0 0.00 0.00 0.00 82 1014.0
20260510142447 54 80 21.0 21.0 0.00 0.00 0.00 82 1014.0
20260510141447 54 80 21.0 21.0 0.00 0.00 0.00 82 1014.0
20260510140448 54 80 21.0 21.0 0.00 0.00 0.00 82 1014.0
20260510135447 54 80 21.0 21.0 0.00 0.00 0.00 82 1014.0
20260510134447 54 80 21.0 21.0 0.00 0.00 0.00 82 1014.0
20260510133448 54 80 21.0 21.0 0.00 0.00 0.00 82 1015.0
20260510132448 54 80 21.0 21.0 0.00 0.00 0.00 82 1015.0
20260510131448 54 80 21.0 21.0 0.00 0.00 0.00 82 1015.0
20260510130448 54 80 21.0 21.0 0.00 0.00 0.00 82 1015.0
20260510125448 54 80 21.0 21.0 0.00 0.00 0.00 82 1015.0
20260510123447 54 80 21.0 21.0 0.00 0.00 0.00 82 1015.0
20260510122447 54 80 21.0 21.0 0.00 0.00 0.00 82 1015.0
20260510121447 54 80 21.0 21.0 0.00 0.00 0.00 82 1015.0
20260510120447 54 70 18.0 19.0 0.00 0.00 0.00 82 1015.0
20260510115447 54 70 18.0 19.0 0.00 0.00 0.00 82 1015.0
20260510114447 54 60 18.0 18.0 0.00 0.00 0.00 82 1015.0
20260510113448 54 60 19.0 19.0 0.00 0.00 0.00 82 1015.0
20260510112448 54 60 19.0 19.0 0.00 0.00 0.00 82 1015.0
20260510111448 54 60 19.0 19.0 0.00 0.00 0.00 82 1015.0
20260510110448 54 60 19.0 19.0 0.00 0.00 0.00 82 1015.0
20260510105448 54 60 19.0 19.0 0.00 0.00 0.00 82 1015.0
20260510104447 54 60 19.0 19.0 0.00 0.00 0.00 82 1015.0
20260510103447 54 60 19.0 19.0 0.00 0.00 0.00 82 1016.0
20260510102447 54 60 19.0 19.0 0.00 0.00 0.00 82 1016.0
20260510101447 54 70 18.0 29.0 0.00 0.00 0.00 82 1016.0
20260510100447 54 70 18.0 29.0 0.00 0.00 0.00 82 1016.0
20260510095447 54 70 18.0 18.0 0.00 0.00 0.00 82 1016.0
20260510094447 54 70 19.0 19.0 0.00 0.00 0.00 82 1016.0
20260510093448 54 70 19.0 19.0 0.00 0.00 0.00 82 1015.0
20260510092448 54 70 19.0 19.0 0.00 0.00 0.00 82 1015.0
20260510091448 54 70 19.0 19.0 0.00 0.00 0.00 82 1015.0
20260510090448 54 60 19.0 19.0 0.00 0.00 0.00 82 1015.0
20260510085448 54 60 19.0 19.0 0.00 0.00 0.00 82 1015.0
20260510084447 54 60 18.0 18.0 0.00 0.00 0.00 82 1015.0
20260510083447 54 60 18.0 18.0 0.00 0.00 0.00 82 1016.0
20260510082447 54 60 18.0 18.0 0.00 0.00 0.00 82 1016.0
20260510081447 54 60 16.0 16.0 0.00 0.00 0.00 82 1016.0
20260510080447 54 60 16.0 16.0 0.00 0.00 0.00 82 1016.0
20260510075447 54 60 16.0 16.0 0.00 0.00 0.00 82 1016.0
20260510074447 54 50 16.0 16.0 0.00 0.00 0.00 82 1016.0
20260510073447 54 50 16.0 16.0 0.00 0.00 0.00 82 1015.0
20260510072448 54 50 16.0 16.0 0.00 0.00 0.00 82 1015.0
20260510071448 54 50 16.0 16.0 0.00 0.00 0.00 82 1015.0
20260510070448 54 40 15.0 15.0 0.00 0.00 0.00 82 1015.0
20260510065448 54 40 15.0 15.0 0.00 0.00 0.00 82 1015.0
20260510064448 54 40 15.0 15.0 0.00 0.00 0.00 82 1015.0
20260510063447 54 40 15.0 15.0 0.00 0.00 0.00 82 1015.0
20260510062447 54 40 15.0 15.0 0.00 0.00 0.00 82 1015.0
20260510061447 54 40 15.0 15.0 0.00 0.00 0.00 82 1015.0
20260510060447 54 40 15.0 15.0 0.00 0.00 0.00 82 1015.0
20260510055447 54 40 15.0 15.0 0.00 0.00 0.00 82 1015.0
20260510054448 54 40 15.0 15.0 0.00 0.00 0.00 82 1015.0
20260510053447 54 40 15.0 15.0 0.00 0.00 0.00 82 1014.0
20260510052447 54 40 15.0 15.0 0.00 0.00 0.00 82 1014.0
20260510051447 54 40 16.0 16.0 0.00 0.00 0.00 82 1014.0
20260510050448 54 40 16.0 16.0 0.00 0.00 0.00 82 1014.0
20260510045448 54 40 16.0 16.0 0.00 0.00 0.00 82 1014.0
20260510043448 54 50 13.0 13.0 0.00 0.00 0.00 82 1014.0
20260510042447 54 50 13.0 13.0 0.00 0.00 0.00 82 1014.0
20260510041447 54 50 13.0 13.0 0.00 0.00 0.00 82 1014.0
20260510035447 54 50 13.0 13.0 0.00 0.00 0.00 82 1014.0
20260510034447 54 60 12.0 12.0 0.00 0.00 0.00 82 1014.0
20260510033447 54 60 12.0 12.0 0.00 0.00 0.00 82 1014.0
20260510032447 54 60 12.0 12.0 0.00 0.00 0.00 82 1014.0
20260510031447 54 50 12.0 17.0 0.00 0.00 0.00 82 1014.0
20260510030448 54 50 12.0 17.0 0.00 0.00 0.00 82 1014.0
20260510025448 54 50 12.0 17.0 0.00 0.00 0.00 82 1014.0
20260510024448 54 50 12.0 17.0 0.00 0.00 0.00 82 1014.0
20260510023448 56 30 17.0 17.0 0.00 0.00 0.00 82 1015.0
20260510022448 56 30 17.0 17.0 0.00 0.00 0.00 82 1015.0
20260510021447 56 30 17.0 17.0 0.00 0.00 0.00 82 1015.0
20260510020447 56 30 17.0 17.0 0.00 0.00 0.00 82 1015.0
20260510015447 56 30 17.0 17.0 0.00 0.00 0.00 82 1015.0
20260510014447 56 30 17.0 17.0 0.00 0.00 0.00 82 1015.0
20260510013447 56 30 17.0 17.0 0.00 0.00 0.00 82 1015.0
20260510012447 56 30 17.0 17.0 0.00 0.00 0.00 82 1015.0
20260510011447 56 30 17.0 17.0 0.00 0.00 0.00 82 1015.0
20260510005448 56 30 17.0 17.0 0.00 0.00 0.00 82 1015.0
20260510004448 56 30 17.0 17.0 0.00 0.00 0.00 82 1015.0
20260510003448 56 30 17.0 17.0 0.00 0.00 0.00 82 1015.0
20260510002448 56 30 17.0 17.0 0.00 0.00 0.00 82 1015.0
20260510001448 56 30 17.0 17.0 0.00 0.00 0.00 82 1015.0
20260510000448 56 30 17.0 17.0 0.00 0.00 0.00 82 1015.0
20260509235447 56 30 17.0 17.0 0.00 0.00 0.00 82 1015.0
20260509234447 56 30 17.0 17.0 0.00 0.00 0.00 82 1015.0
20260509233447 56 30 17.0 17.0 0.00 0.00 0.00 82 1016.0
20260509232447 56 30 17.0 17.0 0.00 0.00 0.00 82 1016.0
20260509231447 56 30 17.0 17.0 0.00 0.00 0.00 82 1016.0
20260509230446 56 30 17.0 17.0 0.00 0.00 0.00 82 1016.0
20260509225447 56 30 17.0 17.0 0.00 0.00 0.00 82 1016.0
20260509224447 56 30 17.0 17.0 0.00 0.00 0.00 82 1016.0
20260509223447 56 30 17.0 17.0 0.00 0.00 0.00 82 1016.0
20260509222448 56 30 17.0 17.0 0.00 0.00 0.00 82 1016.0
20260509221447 56 30 17.0 17.0 0.00 0.00 0.00 82 1016.0
20260509220446 56 30 17.0 17.0 0.00 0.00 0.00 82 1016.0
20260509215446 56 30 17.0 17.0 0.00 0.00 0.00 82 1016.0
20260509214446 56 30 17.0 17.0 0.00 0.00 0.00 82 1016.0
20260509213446 56 20 14.0 14.0 0.00 0.00 0.00 82 1016.0
20260509212447 56 20 14.0 14.0 0.00 0.00 0.00 82 1016.0
20260509211445 56 20 14.0 14.0 0.00 0.00 0.00 82 1016.0
20260509210445 58 30 12.0 12.0 0.00 0.00 0.00 77 1016.0
20260509204445 58 20 11.0 11.0 0.00 0.00 0.00 77 1016.0
20260509203445 58 20 11.0 11.0 0.00 0.00 0.00 77 1016.0
20260509202445 58 20 11.0 11.0 0.00 0.00 0.00 77 1016.0
20260509201445 58 10 11.0 12.0 0.00 0.00 0.00 77 1016.0
20260509200445 58 10 11.0 12.0 0.00 0.00 0.00 77 1016.0
20260509195444 58 10 11.0 12.0 0.00 0.00 0.00 77 1016.0
20260509194444 58 10 11.0 12.0 0.00 0.00 0.00 77 1016.0
20260509193444 59 20 12.0 12.0 0.00 0.00 0.00 72 1016.0
20260509192443 59 20 12.0 12.0 0.00 0.00 0.00 72 1016.0
20260509191444 59 20 12.0 12.0 0.00 0.00 0.00 72 1016.0
20260509190443 59 30 9.0 12.0 0.00 0.00 0.00 72 1015.0
20260509185444 59 30 9.0 13.0 0.00 0.00 0.00 72 1015.0
20260509184444 61 50 12.0 13.0 0.00 0.00 0.00 55 1015.0
20260509183444 61 50 12.0 13.0 0.00 0.00 0.00 55 1015.0
20260509182444 61 50 12.0 19.0 0.00 0.00 0.00 55 1015.0
20260509181444 61 80 12.0 18.0 0.00 0.00 0.00 55 1015.0
20260509180444 61 80 13.0 19.0 0.00 0.00 0.00 55 1015.0
20260509175444 61 80 13.0 19.0 0.00 0.00 0.00 55 1015.0
20260509174443 63 90 19.0 19.0 0.00 0.00 0.00 51 1015.0
20260509173443 63 90 19.0 19.0 0.00 0.00 0.00 63 1015.0
20260509172443 63 90 19.0 19.0 0.00 0.00 0.00 63 1015.0
20260509171443 63 80 18.0 18.0 0.00 0.00 0.00 63 1015.0
20260509170443 63 80 18.0 18.0 0.00 0.00 0.00 63 1015.0
20260509165443 63 80 18.0 18.0 0.00 0.00 0.00 63 1015.0
20260509164444 63 80 18.0 18.0 0.00 0.00 0.00 63 1015.0
20260509163444 63 80 18.0 18.0 0.00 0.00 0.00 63 1015.0
20260509162444 63 80 18.0 18.0 0.00 0.00 0.00 63 1015.0
20260509161444 63 80 18.0 18.0 0.00 0.00 0.00 63 1015.0
20260509160444 63 80 18.0 18.0 0.00 0.00 0.00 63 1015.0
20260509155444 63 80 18.0 18.0 0.00 0.00 0.00 63 1015.0
20260509154443 63 80 18.0 18.0 0.00 0.00 0.00 63 1015.0
20260509153443 63 80 18.0 18.0 0.00 0.00 0.00 63 1015.0